Probability
61 65 65 58 61 65 58 58 52 55 55 52 39 29 26 26 23 29 19 45 52 48 39 29 35 32 26 26 26 26 23 19 32 32 35 26 26 29 16 23 13 26 26
65 61 61 65 68 65 61 58 61 61 55 52 48 45 32 35 32 42 35 39 52 42 45 29 32 29 29 26 26 23 35 29 35 39 29 26 23 26 19 16 23 29 23
65 61 61 71 68 68 68 65 65 58 55 48 48 42 35 35 42 42 39 35 29 39 35 32 42 29 35 32 26 29 35 35 42 42 32 29 29 32 35 32 35 32 32
55 71 65 65 68 61 61 65 61 61 55 48 48 45 48 48 48 48 42 42 39 29 26 35 35 42 39 32 26 29 39 39 39 32 32 32 29 29 26 26 32 32 29
61 61 55 65 65 61 65 45 61 52 48 48 48 48 45 48 48 45 45 42 45 35 29 32 42 42 35 35 29 29 35 39 39 35 35 32 35 32 29 29 29 29 26
58 55 52 65 65 58 65 61 55 52 48 45 35 32 45 45 45 52 52 48 45 39 35 35 39 35 45 42 39 35 35 35 35 35 35 35 39 35 35 35 29 29 26
65 61 45 55 55 65 65 58 58 45 42 45 42 39 35 35 39 45 45 42 39 35 42 35 39 35 29 39 42 42 42 39 35 39 39 39 42 39 32 32 29 32 26
55 52 58 48 48 55 65 55 52 48 45 39 52 42 42 35 35 32 45 35 32 32 39 39 42 39 35 32 26 35 42 35 39 39 35 35 35 29 32 32 32 32 29
55 55 55 52 52 52 52 48 42 52 45 42 52 52 52 39 32 32 39 35 42 39 42 35 42 42 39 39 35 32 39 35 39 39 39 39 32 32 32 29 29 26 26
55 55 52 52 52 52 52 45 42 55 52 52 52 52 52 52 42 35 29 23 39 45 48 35 39 42 35 42 35 35 26 19 26 26 26 32 29 29 32 26 26 23 26
58 52 52 52 55 55 55 52 48 58 58 52 52 52 52 52 52 45 35 39 39 39 42 42 35 42 42 42 45 29 23 16 13 19 23 26 32 35 26 23 23 26 26
58 52 52 58 55 55 58 58 52 55 55 55 52 52 52 52 52 55 42 39 35 39 39 45 42 45 42 39 42 26 19 16 10 6 10 16 19 26 26 19 19 19 26
52 58 48 55 58 61 61 61 61 58 55 48 52 52 52 52 52 55 52 45 45 42 52 45 48 48 39 48 39 26 16 10 3 3 6 6 16 13 16 26 23 19 19
45 58 61 61 58 52 52 58 55 55 55 55 48 48 48 42 45 45 48 45 42 39 42 42 39 42 42 52 32 29 23 6 3 3 3 6 6 6 10 13 10 16 19
42 55 58 55 55 55 55 65 65 61 55 52 52 48 42 39 45 42 52 48 45 39 35 42 35 32 35 39 26 26 35 19 3 3 3 3 3 3 6 0 0 3 10
61 58 52 48 52 48 58 61 58 58 58 52 52 45 48 42 42 42 45 52 48 39 32 32 39 35 45 23 19 39 39 23 16 6 3 3 3 3 0 0 0 0 0
61 61 58 55 45 42 48 52 42 42 42 45 42 42 45 52 48 42 45 42 42 39 32 32 35 39 39 45 32 42 32 29 23 10 6 3 3 3 0 0 0 0 0
52 55 55 55 45 35 42 42 42 42 42 42 39 39 35 32 39 42 42 39 42 35 32 29 32 32 42 39 32 32 26 23 26 16 6 3 3 0 0 0 0 0 0
52 48 48 52 48 45 48 42 39 42 39 35 32 35 35 32 32 29 32 35 39 32 32 32 32 35 35 32 26 26 23 26 16 16 10 6 3 0 0 0 0 0 0
58 52 45 45 42 42 42 42 39 35 42 35 35 32 35 35 35 35 29 32 35 32 29 29 26 26 32 29 26 26 29 29 23 16 13 10 3 0 0 0 0 0 0
42 48 48 52 48 39 42 39 42 35 29 32 32 32 32 29 29 26 29 32 32 29 29 29 23 23 23 23 26 29 26 29 29 13 13 13 6 3 3 0 0 0 0
52 55 48 45 42 29 23 23 23 32 29 32 35 35 32 29 26 23 16 16 16 26 26 26 19 19 23 23 26 23 26 19 16 16 16 13 6 6 10 13 3 0 0
52 58 52 48 45 39 23 16 13 23 32 32 32 35 29 26 26 26 23 23 13 10 13 19 19 23 23 26 23 23 23 19 10 6 13 10 13 10 10 10 3 0 0
48 55 48 42 39 32 23 16 10 13 23 32 32 32 35 32 26 26 26 23 23 26 23 19 16 19 23 19 23 19 19 16 13 16 13 10 10 10 10 3 3 0 0
42 42 39 35 35 32 13 13 6 19 26 23 29 29 35 35 26 19 23 29 26 26 23 16 16 13 13 16 16 13 16 13 10 10 16 13 10 10 10 10 3 0 0
45 39 32 32 29 35 10 10 3 13 26 26 29 32 16 23 13 10 13 23 23 26 23 19 19 13 10 13 13 10 10 10 6 10 10 10 10 10 10 6 3 0 0
Height
5890 5890 5890 5889 5889 5889 5889 5889 5889 5889 5889 5889 5888 5888 5889 5888 5888 5887 5887 5887 5887 5887 5887 5886 5886 5886 5885 5885 5885 5885 5884 5883 5883 5883 5882 5882 5881 5881 5880 5880 5879 5879 5879
5890 5890 5889 5889 5889 5889 5889 5889 5889 5889 5889 5888 5888 5888 5888 5887 5887 5887 5886 5886 5885 5885 5885 5885 5884 5884 5884 5884 5883 5883 5883 5882 5881 5881 5880 5880 5880 5879 5878 5878 5877 5877 5877
5890 5889 5889 5888 5888 5888 5888 5888 5888 5888 5888 5887 5887 5887 5887 5886 5886 5886 5885 5884 5884 5884 5884 5883 5883 5883 5882 5882 5881 5881 5881 5880 5879 5879 5878 5878 5877 5877 5876 5876 5875 5875 5875
5890 5889 5888 5888 5887 5887 5887 5887 5887 5887 5886 5886 5886 5885 5885 5885 5885 5884 5883 5883 5882 5882 5882 5881 5881 5881 5880 5880 5879 5879 5878 5878 5877 5877 5876 5876 5875 5875 5874 5873 5873 5872 5872
5889 5888 5887 5887 5886 5887 5886 5886 5886 5885 5885 5884 5884 5883 5883 5883 5883 5882 5881 5881 5880 5880 5879 5879 5879 5878 5878 5877 5877 5876 5876 5876 5875 5875 5874 5873 5873 5872 5871 5871 5870 5869 5869
5889 5888 5887 5886 5886 5886 5885 5885 5884 5884 5883 5882 5882 5881 5881 5881 5880 5880 5879 5879 5878 5877 5877 5876 5876 5876 5875 5875 5874 5873 5873 5873 5872 5872 5871 5870 5870 5869 5868 5868 5867 5866 5866
5889 5888 5887 5886 5885 5884 5884 5883 5883 5882 5881 5881 5880 5879 5879 5878 5878 5877 5877 5877 5876 5875 5875 5873 5872 5873 5872 5872 5871 5871 5870 5869 5869 5868 5867 5867 5866 5866 5865 5864 5863 5863 5862
5889 5888 5887 5885 5885 5884 5883 5882 5881 5881 5880 5879 5879 5878 5877 5877 5876 5875 5874 5874 5873 5873 5872 5871 5870 5869 5868 5868 5868 5867 5866 5865 5865 5864 5864 5863 5862 5862 5861 5860 5859 5859 5858
5889 5887 5886 5885 5884 5883 5882 5881 5880 5879 5879 5878 5876 5876 5875 5874 5874 5873 5872 5871 5870 5869 5868 5868 5867 5866 5865 5865 5864 5863 5862 5861 5861 5860 5859 5859 5858 5858 5857 5856 5856 5855 5854
5888 5887 5885 5884 5883 5881 5880 5879 5878 5877 5877 5876 5875 5873 5872 5872 5871 5871 5870 5868 5867 5866 5865 5864 5863 5863 5861 5861 5860 5859 5858 5857 5856 5855 5855 5854 5854 5853 5853 5852 5851 5851 5850
5889 5887 5885 5883 5882 5880 5879 5878 5877 5876 5875 5874 5872 5871 5870 5869 5868 5867 5866 5866 5864 5863 5862 5861 5860 5859 5858 5857 5856 5855 5854 5853 5851 5851 5850 5850 5849 5849 5848 5848 5847 5846 5846
5889 5886 5884 5883 5881 5879 5878 5877 5875 5874 5873 5871 5870 5869 5868 5866 5865 5864 5863 5862 5861 5860 5858 5857 5856 5855 5854 5852 5851 5850 5849 5848 5847 5846 5846 5845 5844 5843 5843 5843 5842 5842 5841
5888 5886 5884 5882 5880 5878 5877 5876 5874 5873 5871 5869 5868 5866 5865 5863 5862 5861 5859 5858 5857 5856 5855 5853 5852 5851 5849 5848 5846 5845 5844 5843 5843 5842 5841 5840 5839 5839 5838 5838 5837 5837 5836
5887 5885 5882 5881 5879 5877 5875 5874 5872 5871 5869 5867 5865 5864 5862 5860 5859 5857 5856 5854 5853 5852 5851 5849 5847 5846 5845 5843 5842 5841 5840 5839 5838 5837 5836 5835 5835 5834 5833 5833 5832 5832 5831
5886 5883 5881 5879 5877 5875 5874 5872 5870 5868 5866 5864 5862 5861 5859 5857 5855 5854 5852 5850 5849 5847 5846 5844 5843 5841 5840 5839 5837 5836 5835 5834 5833 5832 5831 5830 5829 5828 5828 5827 5826 5826 5825
5884 5882 5879 5877 5875 5873 5871 5869 5867 5865 5863 5861 5859 5858 5856 5854 5852 5850 5848 5846 5844 5843 5841 5839 5838 5836 5834 5833 5832 5831 5829 5828 5827 5826 5825 5824 5823 5822 5822 5821 5820 5820 5819
5882 5880 5877 5875 5873 5871 5868 5866 5864 5862 5860 5858 5856 5854 5852 5849 5847 5845 5843 5841 5839 5838 5836 5834 5833 5831 5829 5828 5826 5825 5823 5822 5821 5820 5820 5819 5818 5817 5816 5815 5814 5814 5813
5880 5877 5875 5872 5870 5868 5865 5863 5861 5858 5856 5854 5852 5849 5847 5844 5842 5840 5838 5836 5834 5832 5830 5829 5827 5825 5823 5822 5820 5819 5817 5816 5815 5814 5813 5812 5811 5810 5809 5808 5807 5807 5806
5877 5874 5872 5869 5866 5864 5862 5859 5857 5854 5852 5850 5847 5845 5842 5840 5837 5835 5832 5830 5828 5826 5823 5822 5821 5819 5817 5815 5813 5812 5810 5809 5807 5806 5806 5805 5804 5803 5802 5801 5800 5800 5799
5873 5870 5867 5865 5862 5860 5857 5855 5852 5850 5847 5845 5842 5839 5837 5834 5831 5829 5826 5823 5821 5819 5817 5815 5813 5812 5810 5808 5806 5804 5803 5801 5800 5799 5798 5797 5796 5795 5794 5793 5792 5792 5791
5869 5866 5863 5860 5858 5855 5852 5850 5847 5844 5842 5839 5836 5833 5831 5828 5825 5822 5819 5817 5814 5812 5810 5808 5806 5804 5802 5800 5798 5796 5795 5793 5792 5791 5790 5789 5788 5787 5786 5785 5785 5784 5783
5863 5861 5858 5855 5852 5850 5847 5844 5841 5838 5835 5832 5830 5827 5824 5821 5818 5815 5812 5809 5807 5805 5803 5801 5799 5796 5794 5791 5789 5788 5786 5785 5784 5783 5781 5780 5779 5778 5777 5777 5776 5775 5774
5857 5854 5852 5849 5846 5844 5841 5838 5835 5831 5829 5826 5823 5820 5817 5814 5811 5808 5805 5802 5800 5797 5795 5793 5790 5788 5786 5784 5782 5780 5778 5776 5775 5774 5772 5771 5770 5769 5768 5767 5767 5766 5765
5850 5847 5845 5842 5839 5837 5834 5830 5827 5824 5821 5818 5815 5812 5809 5806 5803 5800 5797 5795 5792 5789 5787 5784 5782 5779 5777 5775 5773 5771 5769 5767 5765 5764 5762 5762 5761 5760 5759 5758 5757 5757 5756
5842 5840 5837 5834 5831 5828 5825 5822 5818 5815 5812 5809 5806 5804 5800 5798 5795 5792 5788 5786 5783 5780 5777 5775 5772 5770 5767 5765 5763 5761 5759 5757 5755 5754 5752 5751 5751 5750 5749 5748 5748 5747 5747
5833 5830 5828 5825 5822 5819 5816 5812 5809 5806 5803 5800 5797 5794 5791 5788 5785 5782 5779 5776 5774 5771 5768 5765 5763 5760 5757 5755 5752 5750 5748 5747 5745 5744 5742 5741 5740 5739 5739 5739 5737 5737 5737
Wind_Speed
4 4 3 2 3 3 3 3 3 3 4 4 4 4 4 4 4 5 6 6 7 7 7 7 7 7 7 7 7 7 8 9 8 8 8 7 7 7 7 7 7 7 7
4 4 4 3 3 3 3 4 4 4 5 5 5 5 5 5 6 7 7 7 7 7 7 8 8 8 7 8 8 8 9 9 8 9 8 8 8 8 9 9 8 8 8
4 5 5 4 4 5 4 5 6 6 6 6 7 7 7 7 7 8 8 8 8 8 8 9 9 9 8 8 9 9 9 9 9 9 9 8 9 9 9 10 10 10 9
5 5 5 5 5 6 6 6 7 7 8 8 8 9 8 8 9 9 9 9 9 9 9 9 9 10 9 10 10 11 10 10 10 10 10 10 10 10 10 10 11 11 10
6 6 6 6 7 7 7 8 8 9 10 10 10 10 10 10 10 10 10 10 10 10 10 10 10 10 10 11 11 11 11 11 12 12 12 12 12 12 11 11 12 12 11
8 7 7 7 8 8 8 8 9 10 11 11 11 11 11 11 11 11 11 11 11 11 11 10 11 11 12 12 12 12 13 13 13 13 13 13 13 13 12 12 12 12 12
8 9 8 9 8 8 8 9 9 10 11 11 11 10 11 11 11 12 11 12 12 12 12 12 11 12 13 13 13 14 14 14 14 15 15 14 13 13 13 13 13 13 13
9 9 9 9 9 9 9 10 10 10 10 10 10 11 11 11 11 12 12 12 12 13 13 13 13 13 14 14 14 14 14 15 16 15 15 15 14 14 13 13 13 13 13
10 10 10 10 10 10 10 10 10 10 10 10 11 11 12 11 12 12 12 12 13 13 14 14 15 15 15 14 14 14 14 15 16 16 15 15 15 15 15 15 14 14 14
11 10 11 11 10 11 10 10 10 10 11 11 11 12 12 12 12 12 12 13 14 14 14 15 15 14 14 14 14 15 15 15 16 15 15 16 16 15 15 15 15 15 15
12 11 12 12 11 11 11 11 11 12 12 12 12 13 12 13 13 13 13 14 14 15 15 16 16 15 15 15 15 16 15 16 16 17 17 16 17 17 17 17 17 16 16
12 12 12 12 11 12 12 12 12 13 12 13 13 13 14 14 14 15 15 15 15 16 16 16 17 17 17 17 17 17 17 17 17 18 18 17 17 17 18 18 17 17 17
13 13 13 12 12 13 12 13 13 14 14 14 14 15 15 16 16 16 16 17 17 17 17 17 18 19 18 18 17 17 17 17 18 19 19 18 18 18 18 18 17 17 17
14 14 14 14 14 14 14 14 14 15 16 15 15 16 17 17 18 17 18 19 19 18 18 19 19 19 19 19 18 18 18 18 18 18 19 19 20 19 19 19 19 18 18
15 15 15 15 14 15 15 16 16 16 16 16 16 17 18 19 19 19 19 20 20 19 19 20 20 20 20 19 19 18 19 19 20 20 20 20 21 21 21 21 20 20 20
16 16 16 16 16 16 17 17 17 17 18 18 18 19 20 20 20 20 21 21 21 21 21 22 21 21 21 21 20 20 21 21 21 21 21 21 22 22 22 21 21 21 21
18 18 18 18 18 18 18 18 18 19 19 20 20 21 21 22 22 22 23 23 23 23 23 23 23 22 22 22 23 23 23 23 23 23 23 23 23 23 24 23 23 23 23
19 19 20 20 20 20 20 20 21 21 22 22 22 23 23 23 23 24 24 25 25 25 25 24 24 24 24 24 25 24 25 25 25 25 24 24 24 25 25 25 24 24 23
20 21 22 22 22 22 23 23 23 23 23 23 24 24 24 24 25 26 26 26 26 26 26 26 26 26 26 26 26 26 26 26 26 26 25 25 26 26 26 26 25 24 23
22 22 23 24 24 24 24 25 26 25 25 25 25 25 25 26 27 28 28 27 27 26 26 26 27 27 27 28 28 28 28 27 28 28 27 27 27 27 27 26 27 26 26
24 24 25 25 25 25 26 26 27 28 27 28 27 27 27 27 28 28 28 28 28 27 27 27 27 28 29 30 30 30 29 29 29 29 29 29 28 28 27 27 27 27 27
27 27 27 27 27 27 28 28 29 28 29 29 28 28 29 29 29 29 29 29 29 29 28 29 29 30 29 30 31 31 31 30 30 30 31 30 30 29 29 28 28 28 28
29 29 29 30 30 30 30 30 31 31 30 30 30 30 31 32 31 31 30 30 30 30 31 31 31 31 30 30 30 31 31 31 31 31 32 31 31 31 30 30 30 30 29
32 32 31 32 32 32 33 33 33 33 33 32 32 32 32 32 32 32 33 33 33 33 33 33 33 32 32 32 31 31 31 32 32 32 33 33 32 32 32 31 31 31 29
34 34 33 34 34 34 35 35 36 36 35 35 34 34 34 33 34 34 34 34 34 34 35 35 34 34 33 34 33 33 33 33 33 33 34 33 32 32 32 32 32 31 30
35 36 36 36 37 37 37 37 37 37 37 36 35 35 35 35 35 35 35 35 34 35 35 35 35 35 35 35 35 35 34 34 33 32 32 33 32 32 32 32 32 32 31
Wind_Direction
351 341 332 328 313 301 294 286 300 325 315 308 309 309 301 302 306 302 305 308 303 304 302 297 295 300 295 297 299 300 302 308 307 305 310 312 312 310 302 298 288 287 292
345 333 325 324 315 303 304 301 298 308 314 309 303 301 300 303 304 299 299 297 297 295 293 299 299 300 299 299 297 298 303 305 299 301 302 302 303 304 302 299 291 284 286
343 325 320 315 313 315 309 304 300 298 301 303 301 298 300 301 305 303 299 298 292 290 293 298 299 300 298 298 293 295 298 299 299 296 296 297 297 297 296 295 293 288 284
354 327 316 314 311 308 303 302 301 298 297 299 296 296 294 296 297 301 302 301 295 294 296 293 294 293 292 294 297 295 293 295 297 294 293 292 292 294 293 293 293 291 287
357 344 334 327 320 312 303 299 302 299 300 299 296 293 292 293 294 297 298 300 299 298 298 296 293 296 296 295 295 294 293 297 299 297 293 292 291 293 293 293 292 289 287
356 346 336 330 320 317 312 307 304 302 303 303 304 298 294 293 295 294 297 302 304 301 299 293 295 295 295 294 293 291 290 294 296 298 295 292 289 291 291 290 288 284 284
353 349 345 339 330 324 324 321 315 313 310 307 307 301 298 297 295 295 300 304 304 302 295 295 298 297 293 292 292 292 291 291 292 292 290 291 289 286 287 289 284 281 280
359 356 350 341 334 331 329 324 318 318 321 316 313 305 302 300 299 300 299 300 300 299 297 294 297 295 295 294 291 292 288 287 286 289 291 291 289 287 287 287 283 277 276
357 354 347 340 337 334 330 324 318 316 322 318 315 311 307 306 301 300 299 298 297 297 297 296 295 297 297 295 293 293 291 287 285 288 287 287 288 287 288 288 284 279 276
355 352 348 342 340 338 333 328 325 319 321 318 312 313 312 312 311 307 303 301 300 299 297 294 293 296 297 294 294 292 291 290 285 283 284 284 283 284 286 285 284 282 277
356 350 345 340 340 337 334 331 327 324 322 319 315 312 314 316 312 310 306 302 301 303 303 299 299 296 296 293 294 292 291 290 286 284 285 284 283 283 283 284 284 285 282
350 348 345 340 337 334 332 329 327 328 325 319 314 311 312 315 311 308 307 305 304 302 301 301 302 300 299 297 296 291 287 287 287 285 287 286 284 283 284 283 283 285 285
343 344 341 338 337 334 330 327 325 323 324 322 319 315 310 310 311 308 307 307 305 303 300 299 299 298 299 298 296 292 290 288 288 286 285 285 285 286 286 284 281 284 283
336 338 337 336 335 333 328 325 323 321 321 321 321 320 315 313 313 311 308 305 303 302 300 299 299 298 298 295 294 291 291 291 290 288 286 285 286 286 286 285 283 282 281
330 331 330 332 330 328 325 321 318 315 316 317 317 316 314 314 314 312 310 310 307 305 303 302 300 298 298 297 296 292 291 292 291 288 286 284 285 286 286 285 284 283 284
329 327 325 325 323 320 318 317 317 316 315 314 314 313 312 312 311 311 309 307 306 305 303 302 301 298 297 296 296 293 290 289 290 289 286 285 285 284 285 284 283 283 284
326 324 323 322 321 319 319 318 317 315 314 313 312 312 311 310 309 309 307 306 304 302 302 300 299 296 295 296 295 293 291 288 288 287 286 287 287 285 284 283 283 281 281
320 319 319 319 318 317 317 316 315 313 313 311 310 310 309 309 308 306 306 305 303 302 301 298 297 295 294 293 293 292 292 290 287 286 285 286 286 285 284 282 282 281 279
316 314 313 314 314 314 314 313 313 312 311 310 309 309 308 306 306 304 303 302 301 300 298 296 295 293 293 293 292 290 289 290 289 287 286 285 286 286 285 282 280 280 277
313 314 312 311 311 310 310 310 310 310 310 309 308 308 306 306 306 304 302 301 300 299 299 297 294 293 291 291 291 289 287 287 287 286 285 285 286 286 286 283 280 278 276
309 311 310 309 308 308 308 307 308 307 307 306 306 305 305 304 305 305 303 302 300 299 298 297 296 295 292 290 289 289 287 286 287 286 285 285 285 284 284 281 278 278 277
305 306 306 307 307 307 307 307 308 307 307 306 305 305 304 303 304 302 301 301 300 300 299 299 297 297 296 292 289 288 288 286 285 284 284 284 283 282 282 282 280 278 276
302 303 303 304 304 304 306 306 305 305 305 303 302 302 303 303 303 302 301 301 300 299 298 297 296 296 295 294 292 289 288 288 286 284 283 283 283 282 281 281 281 279 277
298 300 301 302 303 303 303 304 303 303 302 301 301 300 301 302 301 300 299 298 298 298 297 296 296 295 294 294 292 291 289 288 286 283 282 282 282 282 282 281 279 278 276
298 299 300 300 300 300 301 301 301 300 300 299 299 299 299 299 299 299 298 297 297 296 296 295 295 294 293 293 291 289 289 288 287 285 283 281 280 280 281 280 278 278 276
298 298 298 298 298 298 300 301 300 299 299 298 297 297 297 297 297 298 298 298 297 296 294 294 293 293 293 293 292 290 290 289 287 285 283 280 279 279 280 278 277 278 277